Norfolk International Airport Airport (ORF)

 

Airport Diagram
Current Weather/Forecast (MVFR Conditions)
METAR KORF 171951Z 01018G27KT 10SM OVC012 10/07 A2997 RMK AO2 PK WND 36029/1931 SLP147 T01000067
TAF KORF 171723Z 1718/1818 02018G28KT P6SM VCSH OVC010 TEMPO 1718/1720 OVC008 FM180100 01016G26KT P6SM VCSH OVC008 FM180600 35016G26KT P6SM OVC006 FM181200 35014G21KT P6SM OVC005 FM181400 34012KT P6SM BKN006

All Charts
General
Chart Name Download
AIRPORT DIAGRAM
TAKEOFF MINIMUMS
ALTERNATE MINIMUMS

Departures
Chart Name Download
KISRR THREE

Arrivals
Chart Name Download
DRONE TWO
DRONE TWO, CONT.1
TERKS TWO

Approaches
Chart Name Download
ILS OR LOC RWY 05
ILS OR LOC RWY 23
RNAV (RNP) Y RWY 05
RNAV (RNP) Y RWY 23
RNAV (GPS) RWY 14
RNAV (GPS) RWY 32
RNAV (GPS) Z RWY 05
RNAV (GPS) Z RWY 23
VOR/DME RWY 32
VOR RWY 14
RIVER VISUAL RWY 05


Inbound Traffic (Arrivals)

No inbound traffic.


Outbound Traffic (Departures)

No outbound traffic.